Year,Month,Day,Hour,Minute,Value (Times are PST for temperature in C)
2013,09,01,00,00,13.90
2013,09,01,00,01,14.00
2013,09,01,00,02,14.00
2013,09,01,00,03,14.00
2013,09,01,00,04,14.00
2013,09,01,00,05,14.10
2013,09,01,00,06,14.10
2013,09,01,00,07,14.10
2013,09,01,00,08,14.10
2013,09,01,00,09,14.10
2013,09,01,00,10,14.10
2013,09,01,00,11,14.20
2013,09,01,00,12,14.20
2013,09,01,00,13,14.20
2013,09,01,00,14,14.20
2013,09,01,00,15,14.20
2013,09,01,00,16,14.30
2013,09,01,00,17,14.30
2013,09,01,00,18,14.30
2013,09,01,00,19,14.30
2013,09,01,00,20,14.30
2013,09,01,00,21,14.30
2013,09,01,00,22,14.30
2013,09,01,00,23,14.40
2013,09,01,00,24,14.40
2013,09,01,00,25,14.40
2013,09,01,00,26,14.30
2013,09,01,00,27,14.30
2013,09,01,00,28,14.30
2013,09,01,00,29,14.30
2013,09,01,00,30,14.30
2013,09,01,00,31,14.30
2013,09,01,00,32,14.20
2013,09,01,00,33,14.20
2013,09,01,00,34,14.20
2013,09,01,00,35,14.20
2013,09,01,00,36,14.20
2013,09,01,00,37,14.20
2013,09,01,00,38,14.10
2013,09,01,00,39,14.10
2013,09,01,00,40,14.10
2013,09,01,00,41,14.10
2013,09,01,00,42,14.10
2013,09,01,00,43,14.10
2013,09,01,00,44,14.10
2013,09,01,00,45,14.20
2013,09,01,00,46,14.30
2013,09,01,00,47,14.30
2013,09,01,00,48,14.40
2013,09,01,00,49,14.50
2013,09,01,00,50,14.60
2013,09,01,00,51,14.60
2013,09,01,00,52,14.70
2013,09,01,00,53,14.70
2013,09,01,00,54,14.80
2013,09,01,00,55,14.80
2013,09,01,00,56,14.70
2013,09,01,00,57,14.70
2013,09,01,00,58,14.70
2013,09,01,00,59,14.60
2013,09,01,01,00,14.50
2013,09,01,01,01,14.50
2013,09,01,01,02,14.40
2013,09,01,01,03,14.40
2013,09,01,01,04,14.30
2013,09,01,01,05,14.30
2013,09,01,01,06,14.30
2013,09,01,01,07,14.30
2013,09,01,01,08,14.30
2013,09,01,01,09,14.30
2013,09,01,01,10,14.40
2013,09,01,01,11,14.40
2013,09,01,01,12,14.40
2013,09,01,01,13,14.40
2013,09,01,01,14,14.50
2013,09,01,01,15,14.50
2013,09,01,01,16,14.60
2013,09,01,01,17,14.60
2013,09,01,01,18,14.60
2013,09,01,01,19,14.70
2013,09,01,01,20,14.70
2013,09,01,01,21,14.70
2013,09,01,01,22,14.80
2013,09,01,01,23,14.80
2013,09,01,01,24,14.80
2013,09,01,01,25,14.80
2013,09,01,01,26,14.80
2013,09,01,01,27,14.70
2013,09,01,01,28,14.70
2013,09,01,01,29,14.70
2013,09,01,01,30,14.70
2013,09,01,01,31,14.70
2013,09,01,01,32,14.70
2013,09,01,01,33,14.70
2013,09,01,01,34,14.80
2013,09,01,01,35,14.80
2013,09,01,01,36,14.80
2013,09,01,01,37,14.80
2013,09,01,01,38,14.80
2013,09,01,01,39,14.80
2013,09,01,01,40,14.70
2013,09,01,01,41,14.70
2013,09,01,01,42,14.70
2013,09,01,01,43,14.70
2013,09,01,01,44,14.70
2013,09,01,01,45,14.70
2013,09,01,01,46,14.70
2013,09,01,01,47,14.70
2013,09,01,01,48,14.70
2013,09,01,01,49,14.80
2013,09,01,01,50,14.70
2013,09,01,01,51,14.70
2013,09,01,01,52,14.70
2013,09,01,01,53,14.60
2013,09,01,01,54,14.60
2013,09,01,01,55,14.50
2013,09,01,01,56,14.40
2013,09,01,01,57,14.40
2013,09,01,01,58,14.40
2013,09,01,01,59,14.30
2013,09,01,02,00,14.30
2013,09,01,02,01,14.30
2013,09,01,02,02,14.30
2013,09,01,02,03,14.30
2013,09,01,02,04,14.30
2013,09,01,02,05,14.20
2013,09,01,02,06,14.20
2013,09,01,02,07,14.20
2013,09,01,02,08,14.20
2013,09,01,02,09,14.20
2013,09,01,02,10,14.20
2013,09,01,02,11,14.10
2013,09,01,02,12,14.10
2013,09,01,02,13,14.00
2013,09,01,02,14,14.00
2013,09,01,02,15,13.90
2013,09,01,02,16,13.90
2013,09,01,02,17,13.90
2013,09,01,02,18,13.80
2013,09,01,02,19,13.80
2013,09,01,02,20,13.80
2013,09,01,02,21,13.80
2013,09,01,02,22,13.80
2013,09,01,02,23,13.80
2013,09,01,02,24,13.80
2013,09,01,02,25,13.70
2013,09,01,02,26,13.70
2013,09,01,02,27,13.80
2013,09,01,02,28,13.80
2013,09,01,02,29,13.80
2013,09,01,02,30,13.80
2013,09,01,02,31,13.80
2013,09,01,02,32,13.80
2013,09,01,02,33,13.80
2013,09,01,02,34,13.90
2013,09,01,02,35,13.90
2013,09,01,02,36,13.90
2013,09,01,02,37,13.90
2013,09,01,02,38,13.90
2013,09,01,02,39,13.90
2013,09,01,02,40,13.90
2013,09,01,02,41,13.90
2013,09,01,02,42,13.90
2013,09,01,02,43,13.90
2013,09,01,02,44,13.80
2013,09,01,02,45,13.80
2013,09,01,02,46,13.80
2013,09,01,02,47,13.80
2013,09,01,02,48,13.80
2013,09,01,02,49,13.80
2013,09,01,02,50,13.80
2013,09,01,02,51,13.80
2013,09,01,02,52,13.80
2013,09,01,02,53,13.80
2013,09,01,02,54,13.80
2013,09,01,02,55,13.80
2013,09,01,02,56,13.80
2013,09,01,02,57,13.80
2013,09,01,02,58,13.90
2013,09,01,02,59,13.90
2013,09,01,03,00,14.00
2013,09,01,03,01,14.00
2013,09,01,03,02,14.00
2013,09,01,03,03,14.10
2013,09,01,03,04,14.10
2013,09,01,03,05,14.10
2013,09,01,03,06,14.20
2013,09,01,03,07,14.20
2013,09,01,03,08,14.20
2013,09,01,03,09,14.20
2013,09,01,03,10,14.20
2013,09,01,03,11,14.20
2013,09,01,03,12,14.30
2013,09,01,03,13,14.30
2013,09,01,03,14,14.30
2013,09,01,03,15,14.20
2013,09,01,03,16,14.20
2013,09,01,03,17,14.10
2013,09,01,03,18,14.10
2013,09,01,03,19,14.10
2013,09,01,03,20,14.10
2013,09,01,03,21,14.00
2013,09,01,03,22,14.00
2013,09,01,03,23,14.00
2013,09,01,03,24,14.00
2013,09,01,03,25,14.00
2013,09,01,03,26,14.00
2013,09,01,03,27,14.00
2013,09,01,03,28,14.10
2013,09,01,03,29,14.10
2013,09,01,03,30,14.10
2013,09,01,03,31,14.00
2013,09,01,03,32,14.00
2013,09,01,03,33,14.00
2013,09,01,03,34,13.90
2013,09,01,03,35,13.80
2013,09,01,03,36,13.80
2013,09,01,03,37,13.70
2013,09,01,03,38,13.70
2013,09,01,03,39,13.60
2013,09,01,03,40,13.60
2013,09,01,03,41,13.60
2013,09,01,03,42,13.60
2013,09,01,03,43,13.60
2013,09,01,03,44,13.50
2013,09,01,03,45,13.60
2013,09,01,03,46,13.60
2013,09,01,03,47,13.60
2013,09,01,03,48,13.60
2013,09,01,03,49,13.70
2013,09,01,03,50,13.70
2013,09,01,03,51,13.70
2013,09,01,03,52,13.70
2013,09,01,03,53,13.70
2013,09,01,03,54,13.80
2013,09,01,03,55,13.80
2013,09,01,03,56,13.80
2013,09,01,03,57,13.80
2013,09,01,03,58,13.80
2013,09,01,03,59,13.80
2013,09,01,04,00,13.80
2013,09,01,04,01,13.80
2013,09,01,04,02,13.90
2013,09,01,04,03,13.90
2013,09,01,04,04,13.90
2013,09,01,04,05,14.00
2013,09,01,04,06,14.00
2013,09,01,04,07,14.00
2013,09,01,04,08,14.00
2013,09,01,04,09,14.00
2013,09,01,04,10,14.10
2013,09,01,04,11,14.10
2013,09,01,04,12,14.10
2013,09,01,04,13,14.10
2013,09,01,04,14,14.10
2013,09,01,04,15,14.10
2013,09,01,04,16,14.10
2013,09,01,04,17,14.10
2013,09,01,04,18,14.10
2013,09,01,04,19,14.10
2013,09,01,04,20,14.10
2013,09,01,04,21,14.20
2013,09,01,04,22,14.20
2013,09,01,04,23,14.10
2013,09,01,04,24,14.10
2013,09,01,04,25,14.10
2013,09,01,04,26,14.10
2013,09,01,04,27,14.10
2013,09,01,04,28,14.10
2013,09,01,04,29,14.00
2013,09,01,04,30,14.00
2013,09,01,04,31,13.90
2013,09,01,04,32,13.90
2013,09,01,04,33,13.90
2013,09,01,04,34,13.80
2013,09,01,04,35,13.80
2013,09,01,04,36,13.70
2013,09,01,04,37,13.70
2013,09,01,04,38,13.70
2013,09,01,04,39,13.60
2013,09,01,04,40,13.60
2013,09,01,04,41,13.60
2013,09,01,04,42,13.50
2013,09,01,04,43,13.50
2013,09,01,04,44,13.40
2013,09,01,04,45,13.40
2013,09,01,04,46,13.40
2013,09,01,04,47,13.40
2013,09,01,04,48,13.40
2013,09,01,04,49,13.30
2013,09,01,04,50,13.30
2013,09,01,04,51,13.30
2013,09,01,04,52,13.30
2013,09,01,04,53,13.30
2013,09,01,04,54,13.20
2013,09,01,04,55,13.20
2013,09,01,04,56,13.30
2013,09,01,04,57,13.30
2013,09,01,04,58,13.30
2013,09,01,04,59,13.40
2013,09,01,05,00,13.40
2013,09,01,05,01,13.50
2013,09,01,05,02,13.50
2013,09,01,05,03,13.60
2013,09,01,05,04,13.60
2013,09,01,05,05,13.60
2013,09,01,05,06,13.60
2013,09,01,05,07,13.60
2013,09,01,05,08,13.60
2013,09,01,05,09,13.60
2013,09,01,05,10,13.60
2013,09,01,05,11,13.60
2013,09,01,05,12,13.50
2013,09,01,05,13,13.50
2013,09,01,05,14,13.50
2013,09,01,05,15,13.50
2013,09,01,05,16,13.50
2013,09,01,05,17,13.50
2013,09,01,05,18,13.50
2013,09,01,05,19,13.40
2013,09,01,05,20,13.40
2013,09,01,05,21,13.40
2013,09,01,05,22,13.40
2013,09,01,05,23,13.40
2013,09,01,05,24,13.40
2013,09,01,05,25,13.40
2013,09,01,05,26,13.40
2013,09,01,05,27,13.40
2013,09,01,05,28,13.40
2013,09,01,05,29,13.40
2013,09,01,05,30,13.30
2013,09,01,05,31,13.30
2013,09,01,05,32,13.30
2013,09,01,05,33,13.30
2013,09,01,05,34,13.30
2013,09,01,05,35,13.30
2013,09,01,05,36,13.30
2013,09,01,05,37,13.30
2013,09,01,05,38,13.30
2013,09,01,05,39,13.30
2013,09,01,05,40,13.30
2013,09,01,05,41,13.30
2013,09,01,05,42,13.30
2013,09,01,05,43,13.30
2013,09,01,05,44,13.30
2013,09,01,05,45,13.30
2013,09,01,05,46,13.30
2013,09,01,05,47,13.20
2013,09,01,05,48,13.20
2013,09,01,05,49,13.20
2013,09,01,05,50,13.20
2013,09,01,05,51,13.20
2013,09,01,05,52,13.20
2013,09,01,05,53,13.20
2013,09,01,05,54,13.20
2013,09,01,05,55,13.20
2013,09,01,05,56,13.20
2013,09,01,05,57,13.10
2013,09,01,05,58,13.10
2013,09,01,05,59,13.10
2013,09,01,06,00,13.10
2013,09,01,06,01,13.10
2013,09,01,06,02,13.10
2013,09,01,06,03,13.10
2013,09,01,06,04,13.10
2013,09,01,06,05,13.00
2013,09,01,06,06,13.00
2013,09,01,06,07,13.00
2013,09,01,06,08,13.00
2013,09,01,06,09,12.90
2013,09,01,06,10,12.90
2013,09,01,06,11,12.90
2013,09,01,06,12,12.90
2013,09,01,06,13,12.90
2013,09,01,06,14,12.90
2013,09,01,06,15,12.80
2013,09,01,06,16,12.80
2013,09,01,06,17,12.80
2013,09,01,06,18,12.80
2013,09,01,06,19,12.80
2013,09,01,06,20,12.80
2013,09,01,06,21,12.80
2013,09,01,06,22,12.80
2013,09,01,06,23,12.80
2013,09,01,06,24,12.80
2013,09,01,06,25,12.80
2013,09,01,06,26,12.80
2013,09,01,06,27,12.80
2013,09,01,06,28,12.80
2013,09,01,06,29,12.70
2013,09,01,06,30,12.70
2013,09,01,06,31,12.70
2013,09,01,06,32,12.70
2013,09,01,06,33,12.70
2013,09,01,06,34,12.70
2013,09,01,06,35,12.70
2013,09,01,06,36,12.70
2013,09,01,06,37,12.60
2013,09,01,06,38,12.60
2013,09,01,06,39,12.60
2013,09,01,06,40,12.60
2013,09,01,06,41,12.60
2013,09,01,06,42,12.60
2013,09,01,06,43,12.60
2013,09,01,06,44,12.60
2013,09,01,06,45,12.60
2013,09,01,06,46,12.60
2013,09,01,06,47,12.60
2013,09,01,06,48,12.60
2013,09,01,06,49,12.60
2013,09,01,06,50,12.60
2013,09,01,06,51,12.60
2013,09,01,06,52,12.60
2013,09,01,06,53,12.50
2013,09,01,06,54,12.50
2013,09,01,06,55,12.50
2013,09,01,06,56,12.50
2013,09,01,06,57,12.50
2013,09,01,06,58,12.50
2013,09,01,06,59,12.50
2013,09,01,07,00,12.50
2013,09,01,07,01,12.60
2013,09,01,07,02,12.60
2013,09,01,07,03,12.60
2013,09,01,07,04,12.60
2013,09,01,07,05,12.60
2013,09,01,07,06,12.60
2013,09,01,07,07,12.70
2013,09,01,07,08,12.70
2013,09,01,07,09,12.70
2013,09,01,07,10,12.70
2013,09,01,07,11,12.70
2013,09,01,07,12,12.80
2013,09,01,07,13,12.80
2013,09,01,07,14,12.80
2013,09,01,07,15,12.80
2013,09,01,07,16,12.80
2013,09,01,07,17,12.90
2013,09,01,07,18,12.90
2013,09,01,07,19,12.90
2013,09,01,07,20,12.90
2013,09,01,07,21,13.00
2013,09,01,07,22,13.00
2013,09,01,07,23,13.10
2013,09,01,07,24,13.10
2013,09,01,07,25,13.20
2013,09,01,07,26,13.20
2013,09,01,07,27,13.30
2013,09,01,07,28,13.30
2013,09,01,07,29,13.40
2013,09,01,07,30,13.50
2013,09,01,07,31,13.50
2013,09,01,07,32,13.60
2013,09,01,07,33,13.70
2013,09,01,07,34,13.80
2013,09,01,07,35,13.90
2013,09,01,07,36,14.00
2013,09,01,07,37,14.10
2013,09,01,07,38,14.20
2013,09,01,07,39,14.30
2013,09,01,07,40,14.40
2013,09,01,07,41,14.50
2013,09,01,07,42,14.70
2013,09,01,07,43,14.80
2013,09,01,07,44,15.00
2013,09,01,07,45,15.00
2013,09,01,07,46,15.10
2013,09,01,07,47,15.30
2013,09,01,07,48,15.40
2013,09,01,07,49,15.50
2013,09,01,07,50,15.60
2013,09,01,07,51,15.70
2013,09,01,07,52,15.80
2013,09,01,07,53,15.80
2013,09,01,07,54,15.80
2013,09,01,07,55,15.90
2013,09,01,07,56,15.90
2013,09,01,07,57,16.00
2013,09,01,07,58,16.00
2013,09,01,07,59,16.10
2013,09,01,08,00,16.10
2013,09,01,08,01,16.10
2013,09,01,08,02,16.20
2013,09,01,08,03,16.30
2013,09,01,08,04,16.40
2013,09,01,08,05,16.40
2013,09,01,08,06,16.40
2013,09,01,08,07,16.40
2013,09,01,08,08,16.40
2013,09,01,08,09,16.50
2013,09,01,08,10,16.50
2013,09,01,08,11,16.60
2013,09,01,08,12,16.60
2013,09,01,08,13,16.60
2013,09,01,08,14,16.60
2013,09,01,08,15,16.60
2013,09,01,08,16,16.60
2013,09,01,08,17,16.60
2013,09,01,08,18,16.70
2013,09,01,08,19,16.70
2013,09,01,08,20,16.70
2013,09,01,08,21,16.80
2013,09,01,08,22,16.80
2013,09,01,08,23,16.90
2013,09,01,08,24,16.90
2013,09,01,08,25,17.00
2013,09,01,08,26,17.10
2013,09,01,08,27,17.20
2013,09,01,08,28,17.30
2013,09,01,08,29,17.40
2013,09,01,08,30,17.50
2013,09,01,08,31,17.50
2013,09,01,08,32,17.60
2013,09,01,08,33,17.60
2013,09,01,08,34,17.60
2013,09,01,08,35,17.60
2013,09,01,08,36,17.60
2013,09,01,08,37,17.60
2013,09,01,08,38,17.60
2013,09,01,08,39,17.60
2013,09,01,08,40,17.60
2013,09,01,08,41,17.70
2013,09,01,08,42,17.70
2013,09,01,08,43,17.70
2013,09,01,08,44,17.80
2013,09,01,08,45,17.80
2013,09,01,08,46,17.80
2013,09,01,08,47,17.80
2013,09,01,08,48,17.80
2013,09,01,08,49,17.80
2013,09,01,08,50,17.90
2013,09,01,08,51,17.90
2013,09,01,08,52,18.00
2013,09,01,08,53,18.00
2013,09,01,08,54,18.10
2013,09,01,08,55,18.10
2013,09,01,08,56,18.10
2013,09,01,08,57,18.10
2013,09,01,08,58,18.10
2013,09,01,08,59,18.10
2013,09,01,09,00,18.10
2013,09,01,09,01,18.10
2013,09,01,09,02,18.20
2013,09,01,09,03,18.20
2013,09,01,09,04,18.30
2013,09,01,09,05,18.40
2013,09,01,09,06,18.40
2013,09,01,09,07,18.40
2013,09,01,09,08,18.50
2013,09,01,09,09,18.50
2013,09,01,09,10,18.50
2013,09,01,09,11,18.60
2013,09,01,09,12,18.60
2013,09,01,09,13,18.60
2013,09,01,09,14,18.60
2013,09,01,09,15,18.70
2013,09,01,09,16,18.70
2013,09,01,09,17,18.80
2013,09,01,09,18,18.80
2013,09,01,09,19,18.80
2013,09,01,09,20,18.70
2013,09,01,09,21,18.70
2013,09,01,09,22,18.60
2013,09,01,09,23,18.60
2013,09,01,09,24,18.60
2013,09,01,09,25,18.60
2013,09,01,09,26,18.60
2013,09,01,09,27,18.60
2013,09,01,09,28,18.70
2013,09,01,09,29,18.80
2013,09,01,09,30,18.90
2013,09,01,09,31,19.00
2013,09,01,09,32,19.10
2013,09,01,09,33,19.10
2013,09,01,09,34,19.10
2013,09,01,09,35,19.10
2013,09,01,09,36,19.10
2013,09,01,09,37,19.10
2013,09,01,09,38,19.00
2013,09,01,09,39,18.80
2013,09,01,09,40,18.70
2013,09,01,09,41,18.60
2013,09,01,09,42,18.50
2013,09,01,09,43,18.40
2013,09,01,09,44,18.30
2013,09,01,09,45,18.20
2013,09,01,09,46,18.10
2013,09,01,09,47,18.00
2013,09,01,09,48,17.90
2013,09,01,09,49,17.90
2013,09,01,09,50,17.80
2013,09,01,09,51,17.70
2013,09,01,09,52,17.70
2013,09,01,09,53,17.60
2013,09,01,09,54,17.60
2013,09,01,09,55,17.60
2013,09,01,09,56,17.70
2013,09,01,09,57,17.70
2013,09,01,09,58,17.70
2013,09,01,09,59,17.70
2013,09,01,10,00,17.80
2013,09,01,10,01,17.90
2013,09,01,10,02,18.00
2013,09,01,10,03,18.10
2013,09,01,10,04,18.20
2013,09,01,10,05,18.30
2013,09,01,10,06,18.40
2013,09,01,10,07,18.50
2013,09,01,10,08,18.60
2013,09,01,10,09,18.70
2013,09,01,10,10,18.70
2013,09,01,10,11,18.70
2013,09,01,10,12,18.60
2013,09,01,10,13,18.60
2013,09,01,10,14,18.60
2013,09,01,10,15,18.50
2013,09,01,10,16,18.30
2013,09,01,10,17,18.20
2013,09,01,10,18,18.10
2013,09,01,10,19,18.10
2013,09,01,10,20,18.10
2013,09,01,10,21,18.10
2013,09,01,10,22,18.10
2013,09,01,10,23,18.20
2013,09,01,10,24,18.30
2013,09,01,10,25,18.30
2013,09,01,10,26,18.40
2013,09,01,10,27,18.50
2013,09,01,10,28,18.50
2013,09,01,10,29,18.60
2013,09,01,10,30,18.60
2013,09,01,10,31,18.70
2013,09,01,10,32,18.80
2013,09,01,10,33,18.90
2013,09,01,10,34,19.00
2013,09,01,10,35,19.10
2013,09,01,10,36,19.20
2013,09,01,10,37,19.20
2013,09,01,10,38,19.30
2013,09,01,10,39,19.30
2013,09,01,10,40,19.50
2013,09,01,10,41,19.60
2013,09,01,10,42,19.80
2013,09,01,10,43,19.90
2013,09,01,10,44,20.00
2013,09,01,10,45,20.10
2013,09,01,10,46,20.20
2013,09,01,10,47,20.40
2013,09,01,10,48,20.50
2013,09,01,10,49,20.60
2013,09,01,10,50,20.70
2013,09,01,10,51,20.70
2013,09,01,10,52,20.70
2013,09,01,10,53,20.60
2013,09,01,10,54,20.50
2013,09,01,10,55,20.50
2013,09,01,10,56,20.40
2013,09,01,10,57,20.40
2013,09,01,10,58,20.40
2013,09,01,10,59,20.40
2013,09,01,11,00,20.40
2013,09,01,11,01,20.40
2013,09,01,11,02,20.40
2013,09,01,11,03,20.40
2013,09,01,11,04,20.30
2013,09,01,11,05,20.10
2013,09,01,11,06,20.10
2013,09,01,11,07,20.10
2013,09,01,11,08,20.00
2013,09,01,11,09,20.00
2013,09,01,11,10,19.90
2013,09,01,11,11,19.80
2013,09,01,11,12,19.80
2013,09,01,11,13,19.70
2013,09,01,11,14,19.60
2013,09,01,11,15,19.50
2013,09,01,11,16,19.30
2013,09,01,11,17,19.30
2013,09,01,11,18,19.30
2013,09,01,11,19,19.20
2013,09,01,11,20,19.20
2013,09,01,11,21,19.10
2013,09,01,11,22,19.10
2013,09,01,11,23,19.10
2013,09,01,11,24,19.10
2013,09,01,11,25,19.10
2013,09,01,11,26,19.10
2013,09,01,11,27,19.10
2013,09,01,11,28,19.10
2013,09,01,11,29,19.10
2013,09,01,11,30,19.10
2013,09,01,11,31,19.20
2013,09,01,11,32,19.20
2013,09,01,11,33,19.10
2013,09,01,11,34,19.00
2013,09,01,11,35,18.90
2013,09,01,11,36,18.80
2013,09,01,11,37,18.80
2013,09,01,11,38,18.80
2013,09,01,11,39,18.90
2013,09,01,11,40,18.90
2013,09,01,11,41,19.00
2013,09,01,11,42,19.00
2013,09,01,11,43,19.00
2013,09,01,11,44,19.00
2013,09,01,11,45,19.10
2013,09,01,11,46,19.00
2013,09,01,11,47,18.90
2013,09,01,11,48,19.00
2013,09,01,11,49,19.00
2013,09,01,11,50,18.80
2013,09,01,11,51,18.80
2013,09,01,11,52,18.70
2013,09,01,11,53,18.60
2013,09,01,11,54,18.50
2013,09,01,11,55,18.50
2013,09,01,11,56,18.50
2013,09,01,11,57,18.50
2013,09,01,11,58,18.60
2013,09,01,11,59,18.60
2013,09,01,12,00,18.70
2013,09,01,12,01,18.60
2013,09,01,12,02,18.60
2013,09,01,12,03,18.60
2013,09,01,12,04,18.60
2013,09,01,12,05,18.50
2013,09,01,12,06,18.50
2013,09,01,12,07,18.50
2013,09,01,12,08,18.60
2013,09,01,12,09,18.60
2013,09,01,12,10,18.60
2013,09,01,12,11,18.70
2013,09,01,12,12,18.70
2013,09,01,12,13,18.80
2013,09,01,12,14,18.80
2013,09,01,12,15,18.70
2013,09,01,12,16,18.70
2013,09,01,12,17,18.70
2013,09,01,12,18,18.80
2013,09,01,12,19,18.80
2013,09,01,12,20,18.80
2013,09,01,12,21,18.90
2013,09,01,12,22,19.00
2013,09,01,12,23,19.10
2013,09,01,12,24,19.20
2013,09,01,12,25,19.20
2013,09,01,12,26,19.20
2013,09,01,12,27,19.20
2013,09,01,12,28,19.30
2013,09,01,12,29,19.30
2013,09,01,12,30,19.20
2013,09,01,12,31,19.20
2013,09,01,12,32,19.20
2013,09,01,12,33,19.20
2013,09,01,12,34,19.20
2013,09,01,12,35,19.20
2013,09,01,12,36,19.30
2013,09,01,12,37,19.20
2013,09,01,12,38,19.20
2013,09,01,12,39,19.20
2013,09,01,12,40,19.20
2013,09,01,12,41,19.20
2013,09,01,12,42,19.30
2013,09,01,12,43,19.20
2013,09,01,12,44,19.20
2013,09,01,12,45,19.10
2013,09,01,12,46,19.10
2013,09,01,12,47,19.00
2013,09,01,12,48,19.00
2013,09,01,12,49,19.00
2013,09,01,12,50,18.90
2013,09,01,12,51,18.90
2013,09,01,12,52,18.90
2013,09,01,12,53,18.90
2013,09,01,12,54,18.90
2013,09,01,12,55,19.00
2013,09,01,12,56,19.00
2013,09,01,12,57,19.00
2013,09,01,12,58,18.90
2013,09,01,12,59,19.00
2013,09,01,13,00,19.10
2013,09,01,13,01,19.10
2013,09,01,13,02,19.10
2013,09,01,13,03,19.00
2013,09,01,13,04,19.10
2013,09,01,13,05,19.10
2013,09,01,13,06,19.00
2013,09,01,13,07,19.00
2013,09,01,13,08,19.00
2013,09,01,13,09,18.90
2013,09,01,13,10,18.90
2013,09,01,13,11,18.90
2013,09,01,13,12,18.90
2013,09,01,13,13,18.90
2013,09,01,13,14,19.00
2013,09,01,13,15,19.00
2013,09,01,13,16,19.00
2013,09,01,13,17,19.00
2013,09,01,13,18,19.10
2013,09,01,13,19,19.10
2013,09,01,13,20,19.10
2013,09,01,13,21,19.10
2013,09,01,13,22,19.20
2013,09,01,13,23,19.20
2013,09,01,13,24,19.20
2013,09,01,13,25,19.30
2013,09,01,13,26,19.20
2013,09,01,13,27,19.20
2013,09,01,13,28,19.30
2013,09,01,13,29,19.30
2013,09,01,13,30,19.30
2013,09,01,13,31,19.30
2013,09,01,13,32,19.20
2013,09,01,13,33,19.10
2013,09,01,13,34,19.10
2013,09,01,13,35,19.10
2013,09,01,13,36,19.10
2013,09,01,13,37,19.10
2013,09,01,13,38,19.10
2013,09,01,13,39,19.20
2013,09,01,13,40,19.30
2013,09,01,13,41,19.40
2013,09,01,13,42,19.40
2013,09,01,13,43,19.50
2013,09,01,13,44,19.40
2013,09,01,13,45,19.40
2013,09,01,13,46,19.40
2013,09,01,13,47,19.40
2013,09,01,13,48,19.40
2013,09,01,13,49,19.40
2013,09,01,13,50,19.50
2013,09,01,13,51,19.60
2013,09,01,13,52,19.70
2013,09,01,13,53,19.70
2013,09,01,13,54,19.60
2013,09,01,13,55,19.70
2013,09,01,13,56,19.60
2013,09,01,13,57,19.60
2013,09,01,13,58,19.60
2013,09,01,13,59,19.60
2013,09,01,14,00,19.60
2013,09,01,14,01,19.60
2013,09,01,14,02,19.50
2013,09,01,14,03,19.50
2013,09,01,14,04,19.70
2013,09,01,14,05,19.70
2013,09,01,14,06,19.60
2013,09,01,14,07,19.60
2013,09,01,14,08,19.60
2013,09,01,14,09,19.60
2013,09,01,14,10,19.50
2013,09,01,14,11,19.50
2013,09,01,14,12,19.50
2013,09,01,14,13,19.60
2013,09,01,14,14,19.60
2013,09,01,14,15,19.60
2013,09,01,14,16,19.60
2013,09,01,14,17,19.60
2013,09,01,14,18,19.70
2013,09,01,14,19,19.70
2013,09,01,14,20,19.80
2013,09,01,14,21,19.90
2013,09,01,14,22,19.90
2013,09,01,14,23,19.90
2013,09,01,14,24,19.90
2013,09,01,14,25,19.90
2013,09,01,14,26,19.90
2013,09,01,14,27,19.90
2013,09,01,14,28,20.00
2013,09,01,14,29,20.00
2013,09,01,14,30,20.00
2013,09,01,14,31,20.10
2013,09,01,14,32,20.20
2013,09,01,14,33,20.30
2013,09,01,14,34,20.40
2013,09,01,14,35,20.60
2013,09,01,14,36,20.60
2013,09,01,14,37,20.60
2013,09,01,14,38,20.50
2013,09,01,14,39,20.50
2013,09,01,14,40,20.50
2013,09,01,14,41,20.40
2013,09,01,14,42,20.40
2013,09,01,14,43,20.30
2013,09,01,14,44,20.30
2013,09,01,14,45,20.20
2013,09,01,14,46,20.30
2013,09,01,14,47,20.30
2013,09,01,14,48,20.30
2013,09,01,14,49,20.30
2013,09,01,14,50,20.20
2013,09,01,14,51,20.20
2013,09,01,14,52,20.20
2013,09,01,14,53,20.20
2013,09,01,14,54,20.20
2013,09,01,14,55,20.30
2013,09,01,14,56,20.30
2013,09,01,14,57,20.40
2013,09,01,14,58,20.40
2013,09,01,14,59,20.40
2013,09,01,15,00,20.50
2013,09,01,15,01,20.60
2013,09,01,15,02,20.60
2013,09,01,15,03,20.60
2013,09,01,15,04,20.60
2013,09,01,15,05,20.50
2013,09,01,15,06,20.50
2013,09,01,15,07,20.40
2013,09,01,15,08,20.50
2013,09,01,15,09,20.50
2013,09,01,15,10,20.50
2013,09,01,15,11,20.50
2013,09,01,15,12,20.60
2013,09,01,15,13,20.60
2013,09,01,15,14,20.70
2013,09,01,15,15,20.80
2013,09,01,15,16,20.80
2013,09,01,15,17,20.90
2013,09,01,15,18,21.00
2013,09,01,15,19,21.00
2013,09,01,15,20,21.10
2013,09,01,15,21,21.20
2013,09,01,15,22,21.20
2013,09,01,15,23,21.30
2013,09,01,15,24,21.30
2013,09,01,15,25,21.40
2013,09,01,15,26,21.40
2013,09,01,15,27,21.40
2013,09,01,15,28,21.40
2013,09,01,15,29,21.40
2013,09,01,15,30,21.30
2013,09,01,15,31,21.30
2013,09,01,15,32,21.30
2013,09,01,15,33,21.20
2013,09,01,15,34,21.20
2013,09,01,15,35,21.10
2013,09,01,15,36,21.10
2013,09,01,15,37,21.10
2013,09,01,15,38,21.10
2013,09,01,15,39,21.10
2013,09,01,15,40,21.10
2013,09,01,15,41,21.10
2013,09,01,15,42,21.20
2013,09,01,15,43,21.20
2013,09,01,15,44,21.20
2013,09,01,15,45,21.20
2013,09,01,15,46,21.30
2013,09,01,15,47,21.30
2013,09,01,15,48,21.30
2013,09,01,15,49,21.20
2013,09,01,15,50,21.20
2013,09,01,15,51,21.20
2013,09,01,15,52,21.20
2013,09,01,15,53,21.30
2013,09,01,15,54,21.40
2013,09,01,15,55,21.40
2013,09,01,15,56,21.40
2013,09,01,15,57,21.40
2013,09,01,15,58,21.40
2013,09,01,15,59,21.40
2013,09,01,16,00,21.30
2013,09,01,16,01,21.20
2013,09,01,16,02,21.10
2013,09,01,16,03,21.00
2013,09,01,16,04,20.90
2013,09,01,16,05,20.90
2013,09,01,16,06,20.80
2013,09,01,16,07,20.80
2013,09,01,16,08,20.80
2013,09,01,16,09,20.70
2013,09,01,16,10,20.70
2013,09,01,16,11,20.80
2013,09,01,16,12,20.80
2013,09,01,16,13,20.80
2013,09,01,16,14,20.80
2013,09,01,16,15,20.70
2013,09,01,16,16,20.70
2013,09,01,16,17,20.80
2013,09,01,16,18,20.80
2013,09,01,16,19,20.80
2013,09,01,16,20,20.80
2013,09,01,16,21,20.80
2013,09,01,16,22,20.90
2013,09,01,16,23,21.00
2013,09,01,16,24,21.10
2013,09,01,16,25,21.10
2013,09,01,16,26,21.20
2013,09,01,16,27,21.40
2013,09,01,16,28,21.50
2013,09,01,16,29,21.60
2013,09,01,16,30,21.70
2013,09,01,16,31,21.80
2013,09,01,16,32,21.90
2013,09,01,16,33,22.10
2013,09,01,16,34,22.10
2013,09,01,16,35,22.20
2013,09,01,16,36,22.20
2013,09,01,16,37,22.20
2013,09,01,16,38,22.30
2013,09,01,16,39,22.20
2013,09,01,16,40,22.20
2013,09,01,16,41,22.10
2013,09,01,16,42,22.00
2013,09,01,16,43,21.80
2013,09,01,16,44,21.80
2013,09,01,16,45,21.80
2013,09,01,16,46,21.70
2013,09,01,16,47,21.70
2013,09,01,16,48,21.70
2013,09,01,16,49,21.70
2013,09,01,16,50,21.70
2013,09,01,16,51,21.70
2013,09,01,16,52,21.70
2013,09,01,16,53,21.70
2013,09,01,16,54,21.70
2013,09,01,16,55,21.60
2013,09,01,16,56,21.60
2013,09,01,16,57,21.70
2013,09,01,16,58,21.70
2013,09,01,16,59,21.70
2013,09,01,17,00,21.70
2013,09,01,17,01,21.70
2013,09,01,17,02,21.70
2013,09,01,17,03,21.70
2013,09,01,17,04,21.70
2013,09,01,17,05,21.70
2013,09,01,17,06,21.70
2013,09,01,17,07,21.80
2013,09,01,17,08,21.80
2013,09,01,17,09,21.80
2013,09,01,17,10,21.70
2013,09,01,17,11,21.70
2013,09,01,17,12,21.70
2013,09,01,17,13,21.70
2013,09,01,17,14,21.70
2013,09,01,17,15,21.70
2013,09,01,17,16,21.70
2013,09,01,17,17,21.70
2013,09,01,17,18,21.70
2013,09,01,17,19,21.70